When you browse on this site, cookies collect data to enhance your experience and personalize the content and advertising you see.
Visit our Privacy Policy to learn more. By continuing to use the site, you agree to this use of cookies and data.
  • în România
  • Lista ţărilor
  • Pe 7 zile
  • Temperatura apei
  • Hartă satelitară
  • Meteo pe hartă
  • Widget-uri
  • user-avatar
    Intrare

    Meteo pe oră la Bracknell

    Astăzi, 19 Iunie, Miercuri

    Timp Temperatura Precipitaţii Vânt Presiune Umiditate
    00:00 +14°C° 0 mm 2 m/s 749 mmHg 94%
    01:00 +14°C° 0 mm 2 m/s 749 mmHg 94%
    02:00 +13°C° 0 mm 2 m/s 748 mmHg 95%
    03:00 +13°C° 0 mm 2 m/s 748 mmHg 95%
    04:00 +14°C° 0 mm 2 m/s 748 mmHg 95%
    05:00 +14°C° 0 mm 2 m/s 748 mmHg 94%
    06:00 +15°C° 0 mm 2 m/s 748 mmHg 93%
    07:00 +15°C° 0 mm 2 m/s 748 mmHg 93%
    08:00 +15°C° 0 mm 2 m/s 748 mmHg 92%
    09:00 +16°C° 0 mm 2 m/s 748 mmHg 92%
    10:00 +17°C° 0.1 mm 2 m/s 748 mmHg 89%
    11:00 +18°C° 0.1 mm 2 m/s 748 mmHg 86%
    12:00 +19°C° 0.1 mm 2 m/s 749 mmHg 84%
    13:00 +18°C° 1.1 mm 2 m/s 748 mmHg 85%
    14:00 +18°C° 1.1 mm 2 m/s 748 mmHg 87%
    15:00 +18°C° 1.1 mm 2 m/s 748 mmHg 89%
    16:00 +18°C° 0.7 mm 2 m/s 748 mmHg 88%
    17:00 +18°C° 0.7 mm 2 m/s 748 mmHg 88%
    18:00 +18°C° 0.7 mm 3 m/s 748 mmHg 87%
    19:00 +17°C° 0.2 mm 3 m/s 749 mmHg 89%
    20:00 +16°C° 0.2 mm 3 m/s 749 mmHg 91%
    21:00 +14°C° 0.2 mm 3 m/s 750 mmHg 93%
    22:00 +13°C° 0 mm 3 m/s 750 mmHg 93%
    23:00 +12°C° 0 mm 3 m/s 750 mmHg 93%

    Mâine, 20 Iunie, Joi

    Timp Temperatura Precipitaţii Vânt Presiune Umiditate
    00:00 +11°C° 0 mm 3 m/s 750 mmHg 94%
    01:00 +10°C° 0 mm 3 m/s 750 mmHg 93%
    02:00 +9°C° 0 mm 3 m/s 750 mmHg 93%
    03:00 +8°C° 0 mm 3 m/s 750 mmHg 93%
    04:00 +9°C° 0 mm 3 m/s 751 mmHg 93%
    05:00 +10°C° 0 mm 4 m/s 751 mmHg 93%
    06:00 +11°C° 0 mm 4 m/s 751 mmHg 93%
    07:00 +12°C° 0 mm 4 m/s 752 mmHg 88%
    08:00 +14°C° 0 mm 4 m/s 752 mmHg 83%
    09:00 +15°C° 0 mm 4 m/s 752 mmHg 78%
    10:00 +17°C° 0.3 mm 4 m/s 752 mmHg 76%
    11:00 +16°C° 0.3 mm 5 m/s 753 mmHg 74%
    12:00 +17°C° 0.3 mm 5 m/s 753 mmHg 72%
    13:00 +16°C° 0.2 mm 5 m/s 753 mmHg 72%
    14:00 +16°C° 0.2 mm 5 m/s 753 mmHg 73%
    15:00 +16°C° 0.2 mm 6 m/s 753 mmHg 74%
    16:00 +16°C° 0.1 mm 5 m/s 753 mmHg 75%
    17:00 +17°C° 0.1 mm 4 m/s 753 mmHg 76%
    18:00 +16°C° 0.1 mm 3 m/s 753 mmHg 76%
    19:00 +14°C° 0 mm 3 m/s 754 mmHg 80%
    20:00 +12°C° 0 mm 3 m/s 754 mmHg 84%
    21:00 +11°C° 0 mm 3 m/s 754 mmHg 88%
    22:00 +10°C° 0 mm 3 m/s 755 mmHg 89%
    23:00 +9°C° 0 mm 3 m/s 755 mmHg 90%

    Poimâine, 21 Iunie, Vineri

    Timp Temperatura Precipitaţii Vânt Presiune Umiditate
    00:00 +8°C° 0 mm 3 m/s 755 mmHg 91%
    01:00 +8°C° 0 mm 3 m/s 755 mmHg 91%
    02:00 +7°C° 0 mm 3 m/s 755 mmHg 92%
    03:00 +7°C° 0 mm 2 m/s 755 mmHg 92%
    04:00 +8°C° 0 mm 2 m/s 756 mmHg 90%
    05:00 +8°C° 0 mm 2 m/s 756 mmHg 89%
    06:00 +9°C° 0 mm 3 m/s 756 mmHg 88%
    07:00 +11°C° 0 mm 3 m/s 757 mmHg 82%
    08:00 +13°C° 0 mm 3 m/s 757 mmHg 76%
    09:00 +16°C° 0 mm 3 m/s 757 mmHg 70%
    10:00 +16°C° 0 mm 3 m/s 758 mmHg 67%
    11:00 +17°C° 0 mm 3 m/s 758 mmHg 64%
    12:00 +17°C° 0 mm 3 m/s 758 mmHg 61%
    13:00 +18°C° 0 mm 3 m/s 758 mmHg 62%
    14:00 +18°C° 0 mm 3 m/s 758 mmHg 62%
    15:00 +18°C° 0 mm 3 m/s 758 mmHg 62%
    16:00 +17°C° 0 mm 3 m/s 758 mmHg 65%
    17:00 +17°C° 0 mm 3 m/s 758 mmHg 68%
    18:00 +16°C° 0 mm 2 m/s 758 mmHg 70%
    19:00 +15°C° 0 mm 2 m/s 759 mmHg 74%
    20:00 +13°C° 0 mm 1 m/s 759 mmHg 77%
    21:00 +12°C° 0 mm 1 m/s 759 mmHg 81%
    22:00 +10°C° 0 mm 0 m/s 759 mmHg 82%
    23:00 +10°C° 0 mm 0 m/s 759 mmHg 82%

    22 Iunie, Sâmbătă

    Timp Temperatura Precipitaţii Vânt Presiune Umiditate
    00:00 +9°C° 0 mm 0 m/s 759 mmHg 83%
    01:00 +9°C° 0 mm 0 m/s 759 mmHg 84%
    02:00 +9°C° 0 mm 0 m/s 759 mmHg 85%
    03:00 +9°C° 0 mm 1 m/s 759 mmHg 87%
    04:00 +10°C° 0 mm 1 m/s 759 mmHg 85%
    05:00 +12°C° 0 mm 1 m/s 759 mmHg 83%
    06:00 +13°C° 0 mm 1 m/s 759 mmHg 81%
    07:00 +14°C° 0 mm 1 m/s 759 mmHg 77%
    08:00 +16°C° 0 mm 1 m/s 759 mmHg 73%
    09:00 +17°C° 0 mm 2 m/s 759 mmHg 68%
    10:00 +18°C° 0 mm 2 m/s 759 mmHg 66%
    11:00 +19°C° 0 mm 2 m/s 759 mmHg 63%
    12:00 +20°C° 0 mm 2 m/s 759 mmHg 60%
    13:00 +20°C° 0 mm 2 m/s 759 mmHg 60%
    14:00 +20°C° 0 mm 2 m/s 758 mmHg 60%
    15:00 +20°C° 0 mm 2 m/s 758 mmHg 59%
    16:00 +20°C° 0 mm 3 m/s 758 mmHg 63%
    17:00 +19°C° 0 mm 3 m/s 758 mmHg 66%
    18:00 +19°C° 0 mm 3 m/s 758 mmHg 69%
    19:00 +17°C° 0 mm 3 m/s 758 mmHg 71%
    20:00 +14°C° 0 mm 3 m/s 758 mmHg 73%
    21:00 +14°C° 0 mm 2 m/s 758 mmHg 75%
    22:00 +13°C° 0 mm 2 m/s 758 mmHg 80%
    23:00 +13°C° 0 mm 2 m/s 758 mmHg 84%

    23 Iunie, Duminică

    Timp Temperatura Precipitaţii Vânt Presiune Umiditate
    00:00 +13°C° 0 mm 2 m/s 757 mmHg 89%
    01:00 +12°C° 0 mm 1 m/s 758 mmHg 85%
    02:00 +12°C° 0 mm 1 m/s 758 mmHg 85%
    03:00 +11°C° 0 mm 1 m/s 758 mmHg 86%
    04:00 +12°C° 0 mm 2 m/s 758 mmHg 84%
    05:00 +13°C° 0 mm 2 m/s 758 mmHg 83%
    06:00 +13°C° 0 mm 3 m/s 758 mmHg 82%
    07:00 +14°C° 0 mm 3 m/s 758 mmHg 77%
    08:00 +17°C° 0 mm 4 m/s 758 mmHg 73%
    09:00 +17°C° 0 mm 5 m/s 758 mmHg 69%
    10:00 +19°C° 0 mm 5 m/s 758 mmHg 67%
    11:00 +20°C° 0 mm 5 m/s 758 mmHg 64%
    12:00 +21°C° 0 mm 5 m/s 758 mmHg 61%
    13:00 +21°C° 0 mm 5 m/s 757 mmHg 62%
    14:00 +21°C° 0 mm 5 m/s 757 mmHg 63%
    15:00 +21°C° 0 mm 5 m/s 757 mmHg 64%
    16:00 +20°C° 0 mm 5 m/s 757 mmHg 68%
    17:00 +19°C° 0 mm 5 m/s 756 mmHg 72%
    18:00 +17°C° 0 mm 5 m/s 756 mmHg 76%
    19:00 +16°C° 0 mm 5 m/s 756 mmHg 74%
    20:00 +16°C° 0 mm 5 m/s 756 mmHg 72%
    21:00 +16°C° 0 mm 5 m/s 756 mmHg 70%
    22:00 +16°C° 0 mm 5 m/s 756 mmHg 72%
    23:00 +16°C° 0 mm 6 m/s 756 mmHg 74%

    24 Iunie, Luni

    Timp Temperatura Precipitaţii Vânt Presiune Umiditate
    00:00 +16°C° 0 mm 6 m/s 755 mmHg 76%
    01:00 +16°C° 0.1 mm 7 m/s 755 mmHg 78%
    02:00 +16°C° 0.1 mm 7 m/s 755 mmHg 80%
    03:00 +16°C° 0.1 mm 7 m/s 755 mmHg 82%
    04:00 +16°C° 0 mm 7 m/s 754 mmHg 83%
    05:00 +16°C° 0 mm 7 m/s 754 mmHg 84%
    06:00 +16°C° 0 mm 6 m/s 754 mmHg 85%
    07:00 +16°C° 0.1 mm 6 m/s 754 mmHg 84%
    08:00 +17°C° 0.1 mm 6 m/s 754 mmHg 83%
    09:00 +19°C° 0.1 mm 5 m/s 754 mmHg 83%
    10:00 +19°C° 0 mm 6 m/s 754 mmHg 80%
    11:00 +20°C° 0 mm 6 m/s 754 mmHg 78%
    12:00 +21°C° 0 mm 6 m/s 754 mmHg 75%
    13:00 +21°C° 0 mm 5 m/s 754 mmHg 76%
    14:00 +22°C° 0 mm 5 m/s 754 mmHg 76%
    15:00 +22°C° 0 mm 4 m/s 754 mmHg 77%
    16:00 +22°C° 0 mm 4 m/s 754 mmHg 78%
    17:00 +24°C° 0 mm 3 m/s 754 mmHg 80%
    18:00 +24°C° 0 mm 3 m/s 754 mmHg 81%
    19:00 +22°C° 0 mm 3 m/s 754 mmHg 83%
    20:00 +21°C° 0 mm 2 m/s 754 mmHg 85%
    21:00 +20°C° 0 mm 2 m/s 755 mmHg 87%
    22:00 +20°C° 0 mm 1 m/s 755 mmHg 88%
    23:00 +20°C° 0 mm 1 m/s 755 mmHg 89%
    Arată mai mult